loading
|

TITAN 3C TRANSTAGE R/B, 2868

Orbit data source: Space-Track

TITAN 3C TRANSTAGE R/B, 2868 is space debris originally from a launch on Sat, 01 Jul 1967 UTC launched from the Air Force Eastern Test Range (AFETR). Debris objects in space refer to the collection of defunct objects orbiting the Earth. Examples of debris include non-operational satellites, rocket bodies, and fragments generated from explosions, collisions, or faulty payload assembly.

Next visibility unknown
Next conjunction unknown
Loading greatness...
TITAN 3C TRANSTAGE R/B details
Identifier
2868, 1967-066G
Orbit
Active
Last TLE update16 hours ago
Origin
Flag of USSAMSO (US)
ManufacturerMartin Marietta
MissionSpacecraft
Bus & MotorTRANSTAGE, Unknown motor
Mass2,176 kg wet, 2,050 kg dry
Launch date (UTC)
1967-07-01 (57 years ago)
Launch vehicleUnknown
Launch site
Air Force Eastern Test Range (AFETR)
Object type
Payload
Rocket body
Debris
Shape & HBRCyl + 2 Nozzle, 4.6 m
Radar Cross Section14.974 m², Large (>1 m²)

Expand to show TLE details & history

TLE from 16 hours ago
0 TITAN 3C TRANSTAGE R/B
1 02868U 67066G   24285.39978144 -.00000053  00000-0  00000-0 0  9994
2 02868   1.0265 132.8894 0083085 129.1599 239.5655  1.08907231121656
Epoch: 2024-10-11T09:35Z
Definitive object data (Epoch: 2024-10-11T09:35:41.116Z)
Latitude0.12445°
Longitude-23.62293°
Altitude33,695.659 km
Speed3.147 km/s
True Right ascension09h 23m 04s
True Declination0° 07' 28"
Sunlit
Object was in daylight at TLE epoch
Predictive object data (real-time)
Latitude-1.03102°
Longitude-124.83832°
Altitude33,769.792 km
Speed3.141 km/s
Apparent Right ascension03h 04m 33s
Apparent Declination-6° 34' 48"
Sunlit
Object is in daylight
Predictive observer data (real-time)
Local Sidereal Time19:44:46
Azimuth82.1° E
Elevation-19.479°
Doppler factor1
Orbital elements
Apogee33,859.864 km
Perigee33,196.739 km
Semi-major axis39,906.438 km
Eccentricity0.0083085
Inclination1.0265°
RAAN132.8894°
Arg. of periapsis129.1599°
True anomaly238.74893°
Mean anomaly239.5655°
Eccentric anomaly239.15678°
Mean motion0.27226 °/min
BSTARUnknown
Period1322.28 mins
No data available

TITAN 3C TRANSTAGE R/B Visibility forecast

Observer location: 39.9160978°, -105.1181434

TITAN 3C TRANSTAGE R/B is not visible in the next 10 days
Span
Click to sort rows by Start time (UTC) header in descending order
Start Az.
Max El. time (UTC)
Max El. Az.
Max El.
End time (UTC)
End Az.